This is the latest recevied weather packets stored in our database for station/object OH2EGI-2. If no packets are shown the sender has not sent any weather packets the latest 1 day(s).
| Time | Temp. | Humidity | Pressure | Rain* | Wind** | Luminosity | Snow |
|---|---|---|---|---|---|---|---|
| 1778059292 | 12.78° C | 32% | 1004.9 hPa | 0 mm | - | - | - |
| 1778058992 | 13.33° C | 32% | 1004.9 hPa | 0 mm | - | - | - |
| 1778058692 | 12.78° C | 32% | 1004.8 hPa | 0 mm | - | - | - |
| 1778058392 | 12.22° C | 33% | 1004.8 hPa | 0 mm | - | - | - |
| 1778058092 | 12.78° C | 32% | 1004.9 hPa | 0 mm | - | - | - |
| 1778057792 | 12.78° C | 32% | 1004.8 hPa | 0 mm | - | - | - |
| 1778057492 | 12.78° C | 33% | 1004.8 hPa | 0 mm | - | - | - |
| 1778057192 | 12.78° C | 33% | 1004.9 hPa | 0 mm | - | - | - |
| 1778056892 | 12.78° C | 33% | 1004.8 hPa | 0 mm | - | - | - |
| 1778056592 | 13.89° C | 32% | 1004.9 hPa | 0 mm | - | - | - |
| 1778056292 | 14.44° C | 33% | 1004.8 hPa | 0 mm | - | - | - |
| 1778055992 | 13.89° C | 33% | 1004.8 hPa | 0 mm | - | - | - |
| 1778055392 | 12.78° C | 34% | 1004.8 hPa | 0 mm | - | - | - |
| 1778055092 | 13.33° C | 33% | 1004.8 hPa | 0 mm | - | - | - |
| 1778054792 | 14.44° C | 33% | 1004.7 hPa | 0 mm | - | - | - |
| 1778054492 | 14.44° C | 33% | 1004.8 hPa | 0 mm | - | - | - |
| 1778054192 | 15° C | 32% | 1004.8 hPa | 0 mm | - | - | - |
| 1778053892 | 15° C | 34% | 1004.6 hPa | 0 mm | - | - | - |
| 1778053592 | 14.44° C | 35% | 1004.6 hPa | 0 mm | - | - | - |
| 1778053292 | 14.44° C | 35% | 1004.5 hPa | 0 mm | - | - | - |
| 1778052992 | 14.44° C | 35% | 1004.7 hPa | 0 mm | - | - | - |
| 1778052392 | 14.44° C | 36% | 1004.4 hPa | 0 mm | - | - | - |
| 1778052092 | 14.44° C | 35% | 1004.4 hPa | 0 mm | - | - | - |
| 1778051792 | 14.44° C | 35% | 1004.4 hPa | 0 mm | - | - | - |
| 1778051492 | 15° C | 36% | 1004.5 hPa | 0 mm | - | - | - |
* Rain latest hour (hover to see other rain measurements)
** Current wind speed in m/s (hover to see current wind gust speed)